Tracking 19909 objects as of 22-Oct-2019
HD Live streaming from Space Station
objects crossing your sky now

RADUGA 7

Track RADUGA 7 now!
RADUGA 7 is classified as:


NORAD ID: 12003
Int'l Code: 1980-081A
Perigee: 35,775.6 km
Apogee: 35,865.0 km
Inclination: 11.5 °
Period: 1,437.5 minutes
Semi major axis: 42191 km
RCS: 7.9432 m2 (large)
Launch date: October 5, 1980
Source: Commonwealth of Independent States (former USSR) (CIS)
Launch site: TYURATAM MISSILE AND SPACE COMPLEX (TTMTR)
aabbcc
Your satellite tracking list
Your tracking list is empty




NASA's NSSDC Master Catalog

Two Line Element Set (TLE):
1 12003U 80081A   19294.51645785 -.00000258 +00000-0 +00000-0 0  9995
2 12003 011.4969 315.4778 0010598 259.1415 287.8328 01.00177085098939
Source of the keplerian elements: AFSPC